SCP
-0 -0 -0 0 -0 -0 -0 0 -0 0 -0 -0 -0 -0 -0 -0 -0 -0 -0 -0 -0 -0 -0 -0 -0 -0 -0 -0 -0 -0 -0 -0 0 0 0 0 0 0 0 0 0 0 0 0 0 0 -0 -0 0
0 -0 0 0 -0 -0 0 -0 -0 -0 -0 -0 0 -0 -0 -0 -0 -0 -0 -0 -0 -0 -0 -0 -0 -0 -0 -0 -0 -0 -0 -0 0 0 0 0 0 0 0 0 0 0 0 0 0 0 0 -0 -0
0 0 0 -0 -0 -0 0 -0 -0 0 0 -0 -0 -0 -0 -0 -0 -0 -0 -0 -0 -0 -0 -0 -0 -0 -0 -0 -0 -0 -0 -0 -0 0 0 0 0 0 0 0 0 0 0 0 0 0 -0 -0 -0
0 0 0 0 -0 -0 0 -0 0 0 0 0 -0 -0 -0 -0 -0 -0 -0 -0 -0 -0 -0 -0 -0 -0 -0 -0 -0 -0 -0 -0 -0 0 0 0 0 0 0 0 0 0 0 0 0 0 -0 -0 -0
0 0 0 0 -0 -0 0 0 0 -0 0 0 -0 -0 -0 -0 -0 -0 -0 -0 -0 -0 -0 -0 -0 -0 -0 -0 -0 -0 -0 -0 -0 0 0 0 0 0 0 0 0 0 0 0 0 -0 -0 -0 0
0 0 0 0 -0 -0 0 0 0 0 0 0 -0 -0 -0 -0 -0 -0 -0 -0 -0 -0 -0 -0 -0 -0 -0 -0 -0 -0 -0 -0 -0 -0 0 0 0 0 0 0 0 0 0 0 0 0 -0 -0 0
0 0 0 0 -0 -0 0 0 0 -0 0 0 -0 -0 -0 -0 -0 -0 -0 -0 -0 -0 -0 -0 -0 -0 -0 -0 -0 -0 -0 -0 -0 -0 -0 0 -0 0 0 0 0 0 0 0 0 0 0 0 0
0 0 0 0 0 -0 0 0 0 0 0 0 0 0 -0 -0 -0 -0 -0 -0 -0 -0 -0 -0 -0 -0 -0 0 -0 -0 -0 -0 -0 -0 -0 0 0 0 -0 -0 0 0 -0 -0 -0 0 0 0 0
0 0 0 0 0 -0 0 0 0 0 -0 0 0 0 -0 -0 -0 -0 -0 -0 -0 -0 -0 -0 -0 -0 -0 -0 0 -0 -0 -0 -0 -0 0 0 0 0 0 -0 -0 -0 -0 -0 -0 -0 -0 0 -0
0 0 0 0 0 0 0 0 0 0 0 0 0 -0 -0 -0 -0 -0 -0 -0 -0 -0 -0 -0 -0 -0 -0 -0 -0 -0 -0 0 -0 0 -0 0 0 0 -0 -0 -0 -0 -0 -0 -0 0 0 -0 0
0 0 0 0 0 0 0 0 0 0 0 0 0 0 -0 -0 -0 -0 -0 -0 -0 -0 -0 -0 -0 -0 -0 -0 -0 -0 0 0 0 -0 -0 0 0 -0 0 -0 -0 -0 -0 0 0 0 -0 0 0
0 0 0 0 0 0 0 0 0 0 0 0 0 0 0 -0 -0 -0 -0 -0 -0 -0 -0 -0 -0 -0 -0 0 -0 -0 -0 -0 -0 -0 -0 0 0 -0 -0 -0 -0 -0 -0 -0 -0 0 0 0 0
0 0 0 0 0 0 0 0 0 0 0 -0 0 1 -0 -0 0 0 0 -0 -0 -0 -0 -0 -0 -0 -0 -0 -0 -0 -0 -0 -0 -0 -0 -0 0 -0 -0 -0 -0 -0 -0 -0 -0 -0 -0 0 -0
0 0 0 0 0 0 0 0 0 0 0 0 0 0 0 0 0 0 0 -0 -0 -0 -0 -0 -0 -0 -0 -0 -0 -0 -0 -0 -0 -0 -0 -0 -0 -0 -0 -0 0 -0 -0 -0 0 0 0 0 0
0 0 0 0 0 0 0 0 0 0 0 0 0 0 0 0 0 0 0 0 0 -0 -0 -0 -0 -0 -0 -0 -0 -0 -0 -0 -0 -0 -0 -0 -0 -0 -0 -0 -0 0 0 0 0 0 0 0 0
0 0 0 0 0 0 0 0 0 0 0 0 0 0 0 1 0 0 0 0 0 0 -0 -0 0 -0 -0 -0 -0 -0 -0 -0 -0 -0 -0 -0 -0 -0 0 0 0 0 0 0 0 0 0 0 0
0 0 0 0 0 0 0 0 0 0 0 0 0 0 0 0 1 0 0 0 0 0 0 0 0 0 -0 0 0 0 0 0 0 -0 -0 -0 -0 -0 -0 -0 -0 -0 0 0 0 0 0 0 0
0 0 0 0 0 0 0 0 0 0 0 0 0 0 0 0 0 0 0 0 0 0 1 1 0 0 0 0 0 0 0 0 0 0 -0 -0 -0 -0 -0 -0 -0 -0 -0 -0 0 -0 0 0 0
0 0 0 0 0 0 0 0 0 0 0 0 0 0 0 0 0 1 0 0 0 0 1 1 1 0 1 1 1 0 0 0 0 0 0 -0 -0 -0 -0 -0 0 0 0 -0 0 0 0 0 0
0 0 0 0 0 0 0 0 0 0 0 0 0 0 0 0 0 0 1 0 0 0 1 1 1 1 1 1 1 1 1 1 0 0 0 0 0 0 0 0 0 0 0 0 0 0 0 0 0
0 0 0 0 0 0 0 0 0 0 0 0 0 0 0 0 0 0 1 1 1 1 1 1 1 1 1 1 1 1 1 1 1 1 0 1 0 0 0 0 0 0 0 0 0 0 0 0 0
0 0 0 0 0 0 0 0 0 0 0 0 0 0 0 0 0 0 0 1 2 1 2 1 1 2 1 1 1 1 1 1 1 1 1 1 1 0 1 1 0 0 0 0 0 0 0 0 0
0 0 0 0 0 0 0 0 0 0 0 0 0 0 0 0 0 0 0 0 0 2 2 3 2 2 2 2 1 2 1 1 1 2 1 2 1 1 1 1 1 1 0 0 0 0 0 0 0
0 0 0 0 0 0 0 0 0 0 0 0 0 0 0 0 0 0 0 0 0 0 0 0 0 1 3 3 2 2 2 2 2 2 2 2 2 2 1 1 1 1 1 1 1 0 0 0 0
0 0 0 0 0 0 0 0 0 0 0 0 0 0 0 0 0 0 0 0 0 0 0 0 0 0 0 4 4 3 3 3 2 2 3 3 3 3 2 2 2 2 2 1 1 1 1 1 0
0 0 0 0 0 0 0 0 0 0 0 0 0 0 0 0 0 0 0 0 0 0 0 0 0 0 0 0 0 7 5 6 5 4 4 4 3 4 4 3 3 2 2 2 1 1 1 1 2
0 0 0 0 0 0 0 0 0 0 0 0 0 0 0 0 0 0 0 0 0 0 0 0 0 0 0 0 0 0 3 6 5 5 4 4 4 4 4 5 3 3 3 2 2 2 1 2 1
-0 0 0 0 0 0 0 0 0 0 -0 -0 0 0 0 0 0 0 0 0 0 0 0 0 0 0 0 0 0 0 0 3 6 5 4 4 2 4 4 5 5 4 4 3 3 2 2 2 2
0 0 0 0 0 0 0 0 0 0 -0 -0 0 0 0 0 0 0 0 0 0 0 0 0 0 0 0 1 0 0 0 1 5 5 4 3 3 2 5 6 6 5 4 4 3 2 2 2 2
0 0 0 0 0 0 0 0 0 0 -0 0 0 0 0 0 0 0 0 0 0 0 0 0 0 0 0 1 1 1 1 1 1 2 3 3 3 3 4 6 6 5 5 5 3 2 2 2 2
Wind_Speed_500mb
28 32 35 31 9 14 30 17 25 26 34 36 32 27 39 42 23 24 44 41 38 39 37 35 32 32 33 33 31 27 23 20 21 23 24 26 30 30 28 27 29 30 32 34 34 35 37 38 39
27 16 25 23 14 24 18 51 33 37 41 29 15 37 42 34 40 53 45 39 40 44 39 36 35 33 35 33 30 28 25 20 20 23 23 25 28 28 25 23 24 28 30 32 32 35 36 37 39
30 21 24 11 22 28 7 49 37 36 33 27 24 44 30 29 38 33 50 51 41 46 40 37 36 35 35 36 32 30 27 21 22 21 21 24 27 26 23 21 22 26 28 29 33 34 35 35 36
30 24 23 18 33 43 24 14 30 28 23 19 42 28 29 38 28 37 54 50 44 46 41 39 37 36 35 36 34 31 27 23 24 21 21 24 27 26 22 21 22 25 28 29 31 32 32 33 34
26 25 20 32 37 48 13 18 16 21 14 16 33 40 38 29 36 54 57 49 46 46 43 40 38 37 37 35 33 33 28 26 24 23 23 26 25 24 23 21 23 25 27 28 29 29 29 30 31
24 32 25 29 39 46 18 21 8 11 30 14 54 49 23 34 53 54 52 50 44 46 46 41 40 38 36 36 33 31 30 28 25 24 25 26 24 23 24 24 24 25 26 27 28 27 26 26 27
30 21 32 40 42 47 26 30 11 18 28 28 35 31 34 40 50 56 51 49 47 40 46 45 42 41 38 36 35 31 31 29 27 25 26 28 26 25 25 24 25 25 26 26 25 23 22 22 23
39 19 41 38 35 52 18 23 19 27 27 26 24 19 45 57 55 56 51 51 49 44 46 49 46 44 43 41 38 35 32 31 29 28 26 27 27 27 26 26 26 26 27 27 24 21 20 21 19
41 22 28 40 41 46 15 14 22 24 35 28 20 22 63 67 63 59 56 51 52 47 46 53 50 47 45 44 43 40 37 34 33 31 30 30 29 28 28 26 26 27 29 27 23 20 20 17 16
37 25 44 42 44 35 49 24 26 23 37 25 31 55 73 72 70 69 67 61 57 52 51 57 55 52 50 47 46 46 44 43 39 38 35 34 32 30 28 29 29 30 30 30 26 23 22 21 18
45 37 40 54 63 41 40 23 26 19 32 28 42 61 60 70 66 66 63 64 64 57 52 60 59 56 54 50 50 50 49 48 46 42 41 38 34 31 29 31 33 35 36 35 32 30 27 24 20
46 56 56 57 64 58 34 37 29 27 33 35 51 71 66 65 68 67 63 61 62 62 56 58 63 60 58 49 51 53 51 50 50 50 46 45 38 33 38 35 35 39 41 39 38 36 33 32 28
47 44 60 59 62 53 40 36 40 39 40 51 8 69 72 73 68 64 62 60 61 64 62 60 62 65 62 56 47 55 53 53 50 50 49 49 48 42 38 38 33 38 43 43 42 38 37 37 36
57 56 58 60 56 51 45 40 43 49 40 42 24 36 63 66 67 64 63 65 65 64 67 63 64 65 66 65 57 49 51 48 51 50 52 51 52 47 45 44 45 40 40 42 41 41 36 37 36
61 48 48 45 48 48 53 45 46 53 50 54 42 42 54 63 62 68 69 67 68 67 69 68 68 66 67 72 64 57 56 53 46 53 51 54 57 55 54 48 54 48 40 39 38 37 40 37 41
40 43 44 48 43 45 49 50 44 60 60 62 56 52 53 60 65 69 70 67 69 68 70 68 73 73 68 72 74 67 62 61 58 56 57 57 56 63 61 58 55 54 49 46 50 48 49 51 51
33 38 50 53 51 44 47 52 43 64 62 65 67 59 55 61 66 69 73 74 72 71 73 74 70 78 72 71 78 73 67 66 66 60 63 64 60 63 69 67 63 61 59 58 55 58 57 56 54
44 49 51 52 44 49 52 52 42 60 62 60 68 61 64 64 67 72 71 76 71 74 75 74 71 77 75 72 71 80 72 70 66 69 64 68 67 61 68 72 69 64 63 67 64 61 58 60 56
44 45 57 52 48 47 47 53 50 54 56 57 59 72 72 62 67 72 73 73 73 73 81 77 75 79 80 79 82 81 86 77 76 72 72 68 71 69 64 74 74 70 72 72 67 67 66 61 58
56 56 55 48 50 43 45 50 47 41 40 58 57 65 79 74 63 69 75 70 80 72 81 84 78 77 87 86 82 82 78 78 76 76 73 75 75 77 74 72 80 79 79 78 73 70 70 68 57
56 56 47 49 46 52 42 35 51 36 41 64 69 72 57 61 65 61 73 82 75 82 71 86 83 81 80 85 81 74 70 64 71 78 79 81 80 83 80 77 78 84 84 86 82 78 75 76 69
54 53 52 51 37 33 45 30 39 36 32 36 53 61 63 54 67 64 71 79 84 83 83 77 86 86 81 78 84 85 86 87 88 85 85 82 82 86 88 85 81 82 87 90 89 85 85 80 77
57 51 51 52 42 37 44 29 36 46 42 44 47 53 45 44 51 65 53 49 85 81 85 78 70 79 85 84 84 86 89 87 86 80 83 85 85 87 88 89 88 87 86 91 91 90 88 89 87
56 52 56 50 30 32 43 36 38 35 40 39 41 63 57 64 62 58 65 52 52 62 77 81 85 79 80 92 92 91 90 92 86 80 85 88 91 90 90 90 91 91 91 91 93 91 88 86 86
44 41 28 39 29 33 39 38 35 28 40 41 37 43 62 87 82 81 67 66 71 69 56 71 95 98 101 91 92 97 100 96 94 93 88 89 91 93 96 94 92 92 91 91 90 93 91 90 85
39 41 32 40 33 35 47 46 42 37 58 70 62 52 36 22 10 51 47 36 34 66 84 81 61 94 96 97 108 85 93 102 103 103 91 89 91 94 94 92 90 89 90 89 90 91 93 88 89
31 39 41 45 39 30 29 37 53 49 47 41 48 50 51 35 28 21 18 28 48 49 47 49 77 80 75 84 88 89 92 92 103 102 96 96 84 85 87 89 91 88 87 88 89 92 93 89 85
51 39 28 23 44 47 39 41 27 42 50 46 39 27 48 31 28 28 31 39 44 38 47 39 39 43 44 56 67 76 77 89 97 105 95 86 95 81 82 85 91 90 87 87 89 90 88 88 87
26 29 38 33 21 28 36 35 36 37 25 19 25 54 25 45 11 10 17 17 5 2 12 29 30 33 44 43 42 52 63 70 81 88 94 89 89 88 86 87 93 94 91 88 90 90 88 87 82
32 29 22 13 38 30 27 27 38 41 36 22 18 15 14 14 11 11 18 24 24 19 18 23 45 37 31 27 33 46 56 61 70 83 83 85 88 89 92 94 96 98 96 87 89 91 87 82 80
Wind_Direction_500mb
316 321 337 300 255 225 270 299 112 119 88 78 69 67 74 51 39 103 136 155 164 147 144 143 143 148 154 154 155 156 154 149 141 133 127 126 130 129 121 112 116 118 121 122 122 121 117 113 111
325 332 284 279 254 279 44 285 97 88 94 97 93 75 76 65 96 118 126 150 160 147 147 144 144 149 156 161 162 160 160 157 150 144 134 131 132 132 126 121 124 128 127 125 123 121 120 117 115
321 324 291 230 251 256 186 253 96 99 117 115 88 78 62 109 117 124 142 149 151 148 149 146 145 148 155 160 164 165 164 163 156 150 142 140 142 142 136 133 133 133 130 128 127 125 121 119 116
312 287 248 258 269 272 151 242 99 125 135 141 117 93 86 118 127 138 145 151 148 150 152 148 146 148 152 158 163 163 166 168 160 156 154 151 152 152 149 142 140 139 136 135 134 131 127 124 121
286 268 258 267 262 268 291 55 110 143 129 134 118 102 114 114 131 141 147 149 153 153 151 152 149 150 151 156 164 163 166 168 164 162 161 159 156 158 156 153 147 145 142 141 139 134 131 128 126
285 258 265 262 252 256 251 109 263 200 140 149 110 115 114 135 135 146 149 152 158 167 160 159 154 153 155 154 164 169 169 168 168 168 165 165 161 162 159 157 156 154 151 146 141 140 136 134 134
264 278 262 266 275 277 235 142 188 249 158 165 142 128 139 149 149 148 153 156 156 178 170 166 161 159 160 159 164 174 174 172 171 172 171 170 170 167 164 163 163 163 160 156 152 149 147 143 142
266 268 273 272 273 272 135 146 181 251 245 167 150 155 161 157 154 152 156 160 164 188 175 173 170 167 167 166 170 175 181 180 178 176 176 179 178 174 172 172 172 172 172 169 167 161 157 156 157
273 265 257 257 259 270 133 184 181 244 254 153 162 127 157 156 155 155 157 164 175 193 182 181 179 176 174 174 174 179 183 188 186 185 183 184 186 183 180 182 182 184 183 184 185 190 189 181 179
243 247 252 258 268 283 323 202 210 198 243 175 107 121 147 153 159 163 165 170 179 189 189 187 187 184 181 182 182 184 186 190 193 192 189 189 191 192 189 192 192 192 196 195 198 197 193 189 181
250 246 257 268 272 326 306 298 228 208 221 188 138 141 154 161 167 171 174 178 183 186 193 190 193 192 188 188 188 192 193 194 195 199 197 193 193 193 192 208 203 202 203 207 208 207 206 201 192
262 257 254 264 272 285 293 291 283 227 254 236 179 164 166 175 176 179 181 182 183 187 195 195 196 197 194 189 197 198 201 202 201 202 202 200 191 206 204 214 214 213 211 212 215 218 217 218 199
254 261 255 261 266 279 278 282 280 283 237 257 252 170 174 180 185 187 186 185 186 190 195 197 197 199 197 185 211 203 206 208 210 211 209 202 196 203 215 205 226 222 223 218 223 223 227 230 226
258 260 258 257 256 260 253 260 265 268 270 268 235 199 177 187 190 190 191 186 188 195 199 200 200 203 199 190 209 209 202 211 212 216 219 213 204 199 218 206 214 237 224 228 228 228 231 238 244
266 268 268 255 254 247 260 249 241 249 255 264 248 218 193 193 200 198 195 193 192 197 201 206 202 209 203 198 194 215 204 211 216 216 222 223 212 203 221 218 209 223 231 226 240 229 233 235 249
286 253 250 244 237 245 250 250 240 239 240 249 245 234 223 202 204 206 200 196 193 196 201 210 203 211 210 202 195 208 207 205 219 218 221 229 220 213 218 219 217 217 219 229 224 233 224 234 231
255 251 238 245 240 238 234 245 245 255 234 231 244 232 225 229 201 214 202 197 196 193 199 211 208 207 214 211 204 206 210 212 211 223 217 227 232 222 220 224 223 221 218 218 231 232 232 232 238
235 240 243 254 229 238 241 240 233 237 248 248 225 240 226 219 211 209 209 198 202 193 201 213 214 207 216 214 211 210 211 212 221 218 226 222 235 233 225 227 226 224 226 224 222 234 236 236 233
257 257 253 250 244 256 242 234 236 219 238 253 233 221 239 228 215 209 211 204 201 199 198 210 216 210 212 216 214 212 215 213 220 225 224 227 231 238 233 229 232 223 227 231 232 226 233 237 241
238 254 262 272 272 266 240 259 248 225 222 241 251 236 216 230 228 209 206 205 200 202 202 206 220 221 213 221 221 221 219 221 225 226 228 227 229 237 239 236 233 232 228 233 232 230 232 235 232
249 243 248 260 278 282 272 258 254 221 230 246 240 252 221 227 243 217 206 204 202 202 206 205 216 226 224 223 220 221 220 222 223 227 231 231 231 234 242 242 238 234 233 235 237 233 233 237 239
249 246 249 254 256 263 267 246 245 250 255 259 258 244 245 221 228 245 211 205 201 202 207 207 213 222 230 230 227 222 221 218 229 233 233 236 234 235 239 243 244 240 235 236 239 239 237 238 238
246 257 257 244 245 264 272 271 221 235 229 242 252 249 243 245 231 246 248 212 206 204 205 210 212 217 227 234 233 233 223 227 234 226 230 233 238 239 240 242 245 245 240 238 239 240 239 239 242
259 246 245 259 239 239 246 257 259 223 232 237 230 237 240 246 249 249 249 244 232 204 206 214 216 218 225 230 237 234 236 233 227 228 226 231 234 239 242 244 245 246 246 241 241 240 242 243 243
246 251 252 230 227 238 232 249 251 254 256 258 267 304 230 226 223 231 242 242 249 248 243 230 228 228 224 223 231 235 236 238 239 232 228 227 230 232 244 245 244 245 245 246 239 240 239 241 244
247 240 244 250 231 230 227 238 243 266 263 274 283 290 307 317 289 216 220 239 244 239 247 253 244 231 231 229 227 227 241 236 239 241 231 232 232 236 243 247 249 248 247 242 242 236 241 238 242
272 271 254 260 268 269 255 231 221 235 252 265 262 264 276 282 278 266 231 260 263 256 250 252 254 244 226 232 236 235 231 241 241 238 236 229 233 235 239 243 249 249 245 243 238 238 237 241 241
230 261 246 263 249 252 253 258 274 207 227 241 258 252 245 245 289 271 268 264 223 252 250 259 258 233 232 244 254 258 250 234 241 242 232 234 232 232 233 236 245 248 245 242 240 239 239 236 238
300 229 257 274 266 263 250 245 263 277 208 231 250 246 258 237 247 331 312 338 236 254 253 257 267 259 263 253 260 256 255 243 237 240 240 235 236 231 230 232 239 246 246 244 240 239 235 232 232
285 272 272 291 270 246 225 265 284 290 288 288 177 189 174 177 20 300 328 329 310 325 305 261 259 255 259 265 267 257 247 248 242 239 242 246 240 237 230 230 234 243 247 245 240 233 229 226 225
Wind_Speed_850mb
28 32 35 31 9 14 30 17 25 26 34 36 32 27 39 42 23 24 44 41 38 39 37 35 32 32 33 33 31 27 23 20 21 23 24 26 30 30 28 27 29 30 32 34 34 35 37 38 39
27 16 25 23 14 24 18 51 33 37 41 29 15 37 42 34 40 53 45 39 40 44 39 36 35 33 35 33 30 28 25 20 20 23 23 25 28 28 25 23 24 28 30 32 32 35 36 37 39
30 21 24 11 22 28 7 49 37 36 33 27 24 44 30 29 38 33 50 51 41 46 40 37 36 35 35 36 32 30 27 21 22 21 21 24 27 26 23 21 22 26 28 29 33 34 35 35 36
30 24 23 18 33 43 24 14 30 28 23 19 42 28 29 38 28 37 54 50 44 46 41 39 37 36 35 36 34 31 27 23 24 21 21 24 27 26 22 21 22 25 28 29 31 32 32 33 34
26 25 20 32 37 48 13 18 16 21 14 16 33 40 38 29 36 54 57 49 46 46 43 40 38 37 37 35 33 33 28 26 24 23 23 26 25 24 23 21 23 25 27 28 29 29 29 30 31
24 32 25 29 39 46 18 21 8 11 30 14 54 49 23 34 53 54 52 50 44 46 46 41 40 38 36 36 33 31 30 28 25 24 25 26 24 23 24 24 24 25 26 27 28 27 26 26 27
30 21 32 40 42 47 26 30 11 18 28 28 35 31 34 40 50 56 51 49 47 40 46 45 42 41 38 36 35 31 31 29 27 25 26 28 26 25 25 24 25 25 26 26 25 23 22 22 23
39 19 41 38 35 52 18 23 19 27 27 26 24 19 45 57 55 56 51 51 49 44 46 49 46 44 43 41 38 35 32 31 29 28 26 27 27 27 26 26 26 26 27 27 24 21 20 21 19
41 22 28 40 41 46 15 14 22 24 35 28 20 22 63 67 63 59 56 51 52 47 46 53 50 47 45 44 43 40 37 34 33 31 30 30 29 28 28 26 26 27 29 27 23 20 20 17 16
37 25 44 42 44 35 49 24 26 23 37 25 31 55 73 72 70 69 67 61 57 52 51 57 55 52 50 47 46 46 44 43 39 38 35 34 32 30 28 29 29 30 30 30 26 23 22 21 18
45 37 40 54 63 41 40 23 26 19 32 28 42 61 60 70 66 66 63 64 64 57 52 60 59 56 54 50 50 50 49 48 46 42 41 38 34 31 29 31 33 35 36 35 32 30 27 24 20
46 56 56 57 64 58 34 37 29 27 33 35 51 71 66 65 68 67 63 61 62 62 56 58 63 60 58 49 51 53 51 50 50 50 46 45 38 33 38 35 35 39 41 39 38 36 33 32 28
47 44 60 59 62 53 40 36 40 39 40 51 8 69 72 73 68 64 62 60 61 64 62 60 62 65 62 56 47 55 53 53 50 50 49 49 48 42 38 38 33 38 43 43 42 38 37 37 36
57 56 58 60 56 51 45 40 43 49 40 42 24 36 63 66 67 64 63 65 65 64 67 63 64 65 66 65 57 49 51 48 51 50 52 51 52 47 45 44 45 40 40 42 41 41 36 37 36
61 48 48 45 48 48 53 45 46 53 50 54 42 42 54 63 62 68 69 67 68 67 69 68 68 66 67 72 64 57 56 53 46 53 51 54 57 55 54 48 54 48 40 39 38 37 40 37 41
40 43 44 48 43 45 49 50 44 60 60 62 56 52 53 60 65 69 70 67 69 68 70 68 73 73 68 72 74 67 62 61 58 56 57 57 56 63 61 58 55 54 49 46 50 48 49 51 51
33 38 50 53 51 44 47 52 43 64 62 65 67 59 55 61 66 69 73 74 72 71 73 74 70 78 72 71 78 73 67 66 66 60 63 64 60 63 69 67 63 61 59 58 55 58 57 56 54
44 49 51 52 44 49 52 52 42 60 62 60 68 61 64 64 67 72 71 76 71 74 75 74 71 77 75 72 71 80 72 70 66 69 64 68 67 61 68 72 69 64 63 67 64 61 58 60 56
44 45 57 52 48 47 47 53 50 54 56 57 59 72 72 62 67 72 73 73 73 73 81 77 75 79 80 79 82 81 86 77 76 72 72 68 71 69 64 74 74 70 72 72 67 67 66 61 58
56 56 55 48 50 43 45 50 47 41 40 58 57 65 79 74 63 69 75 70 80 72 81 84 78 77 87 86 82 82 78 78 76 76 73 75 75 77 74 72 80 79 79 78 73 70 70 68 57
56 56 47 49 46 52 42 35 51 36 41 64 69 72 57 61 65 61 73 82 75 82 71 86 83 81 80 85 81 74 70 64 71 78 79 81 80 83 80 77 78 84 84 86 82 78 75 76 69
54 53 52 51 37 33 45 30 39 36 32 36 53 61 63 54 67 64 71 79 84 83 83 77 86 86 81 78 84 85 86 87 88 85 85 82 82 86 88 85 81 82 87 90 89 85 85 80 77
57 51 51 52 42 37 44 29 36 46 42 44 47 53 45 44 51 65 53 49 85 81 85 78 70 79 85 84 84 86 89 87 86 80 83 85 85 87 88 89 88 87 86 91 91 90 88 89 87
56 52 56 50 30 32 43 36 38 35 40 39 41 63 57 64 62 58 65 52 52 62 77 81 85 79 80 92 92 91 90 92 86 80 85 88 91 90 90 90 91 91 91 91 93 91 88 86 86
44 41 28 39 29 33 39 38 35 28 40 41 37 43 62 87 82 81 67 66 71 69 56 71 95 98 101 91 92 97 100 96 94 93 88 89 91 93 96 94 92 92 91 91 90 93 91 90 85
39 41 32 40 33 35 47 46 42 37 58 70 62 52 36 22 10 51 47 36 34 66 84 81 61 94 96 97 108 85 93 102 103 103 91 89 91 94 94 92 90 89 90 89 90 91 93 88 89
31 39 41 45 39 30 29 37 53 49 47 41 48 50 51 35 28 21 18 28 48 49 47 49 77 80 75 84 88 89 92 92 103 102 96 96 84 85 87 89 91 88 87 88 89 92 93 89 85
51 39 28 23 44 47 39 41 27 42 50 46 39 27 48 31 28 28 31 39 44 38 47 39 39 43 44 56 67 76 77 89 97 105 95 86 95 81 82 85 91 90 87 87 89 90 88 88 87
26 29 38 33 21 28 36 35 36 37 25 19 25 54 25 45 11 10 17 17 5 2 12 29 30 33 44 43 42 52 63 70 81 88 94 89 89 88 86 87 93 94 91 88 90 90 88 87 82
32 29 22 13 38 30 27 27 38 41 36 22 18 15 14 14 11 11 18 24 24 19 18 23 45 37 31 27 33 46 56 61 70 83 83 85 88 89 92 94 96 98 96 87 89 91 87 82 80
Wind_Direction_850mb
316 321 337 300 255 225 270 299 112 119 88 78 69 67 74 51 39 103 136 155 164 147 144 143 143 148 154 154 155 156 154 149 141 133 127 126 130 129 121 112 116 118 121 122 122 121 117 113 111
325 332 284 279 254 279 44 285 97 88 94 97 93 75 76 65 96 118 126 150 160 147 147 144 144 149 156 161 162 160 160 157 150 144 134 131 132 132 126 121 124 128 127 125 123 121 120 117 115
321 324 291 230 251 256 186 253 96 99 117 115 88 78 62 109 117 124 142 149 151 148 149 146 145 148 155 160 164 165 164 163 156 150 142 140 142 142 136 133 133 133 130 128 127 125 121 119 116
312 287 248 258 269 272 151 242 99 125 135 141 117 93 86 118 127 138 145 151 148 150 152 148 146 148 152 158 163 163 166 168 160 156 154 151 152 152 149 142 140 139 136 135 134 131 127 124 121
286 268 258 267 262 268 291 55 110 143 129 134 118 102 114 114 131 141 147 149 153 153 151 152 149 150 151 156 164 163 166 168 164 162 161 159 156 158 156 153 147 145 142 141 139 134 131 128 126
285 258 265 262 252 256 251 109 263 200 140 149 110 115 114 135 135 146 149 152 158 167 160 159 154 153 155 154 164 169 169 168 168 168 165 165 161 162 159 157 156 154 151 146 141 140 136 134 134
264 278 262 266 275 277 235 142 188 249 158 165 142 128 139 149 149 148 153 156 156 178 170 166 161 159 160 159 164 174 174 172 171 172 171 170 170 167 164 163 163 163 160 156 152 149 147 143 142
266 268 273 272 273 272 135 146 181 251 245 167 150 155 161 157 154 152 156 160 164 188 175 173 170 167 167 166 170 175 181 180 178 176 176 179 178 174 172 172 172 172 172 169 167 161 157 156 157
273 265 257 257 259 270 133 184 181 244 254 153 162 127 157 156 155 155 157 164 175 193 182 181 179 176 174 174 174 179 183 188 186 185 183 184 186 183 180 182 182 184 183 184 185 190 189 181 179
243 247 252 258 268 283 323 202 210 198 243 175 107 121 147 153 159 163 165 170 179 189 189 187 187 184 181 182 182 184 186 190 193 192 189 189 191 192 189 192 192 192 196 195 198 197 193 189 181
250 246 257 268 272 326 306 298 228 208 221 188 138 141 154 161 167 171 174 178 183 186 193 190 193 192 188 188 188 192 193 194 195 199 197 193 193 193 192 208 203 202 203 207 208 207 206 201 192
262 257 254 264 272 285 293 291 283 227 254 236 179 164 166 175 176 179 181 182 183 187 195 195 196 197 194 189 197 198 201 202 201 202 202 200 191 206 204 214 214 213 211 212 215 218 217 218 199
254 261 255 261 266 279 278 282 280 283 237 257 252 170 174 180 185 187 186 185 186 190 195 197 197 199 197 185 211 203 206 208 210 211 209 202 196 203 215 205 226 222 223 218 223 223 227 230 226
258 260 258 257 256 260 253 260 265 268 270 268 235 199 177 187 190 190 191 186 188 195 199 200 200 203 199 190 209 209 202 211 212 216 219 213 204 199 218 206 214 237 224 228 228 228 231 238 244
266 268 268 255 254 247 260 249 241 249 255 264 248 218 193 193 200 198 195 193 192 197 201 206 202 209 203 198 194 215 204 211 216 216 222 223 212 203 221 218 209 223 231 226 240 229 233 235 249
286 253 250 244 237 245 250 250 240 239 240 249 245 234 223 202 204 206 200 196 193 196 201 210 203 211 210 202 195 208 207 205 219 218 221 229 220 213 218 219 217 217 219 229 224 233 224 234 231
255 251 238 245 240 238 234 245 245 255 234 231 244 232 225 229 201 214 202 197 196 193 199 211 208 207 214 211 204 206 210 212 211 223 217 227 232 222 220 224 223 221 218 218 231 232 232 232 238
235 240 243 254 229 238 241 240 233 237 248 248 225 240 226 219 211 209 209 198 202 193 201 213 214 207 216 214 211 210 211 212 221 218 226 222 235 233 225 227 226 224 226 224 222 234 236 236 233
257 257 253 250 244 256 242 234 236 219 238 253 233 221 239 228 215 209 211 204 201 199 198 210 216 210 212 216 214 212 215 213 220 225 224 227 231 238 233 229 232 223 227 231 232 226 233 237 241
238 254 262 272 272 266 240 259 248 225 222 241 251 236 216 230 228 209 206 205 200 202 202 206 220 221 213 221 221 221 219 221 225 226 228 227 229 237 239 236 233 232 228 233 232 230 232 235 232
249 243 248 260 278 282 272 258 254 221 230 246 240 252 221 227 243 217 206 204 202 202 206 205 216 226 224 223 220 221 220 222 223 227 231 231 231 234 242 242 238 234 233 235 237 233 233 237 239
249 246 249 254 256 263 267 246 245 250 255 259 258 244 245 221 228 245 211 205 201 202 207 207 213 222 230 230 227 222 221 218 229 233 233 236 234 235 239 243 244 240 235 236 239 239 237 238 238
246 257 257 244 245 264 272 271 221 235 229 242 252 249 243 245 231 246 248 212 206 204 205 210 212 217 227 234 233 233 223 227 234 226 230 233 238 239 240 242 245 245 240 238 239 240 239 239 242
259 246 245 259 239 239 246 257 259 223 232 237 230 237 240 246 249 249 249 244 232 204 206 214 216 218 225 230 237 234 236 233 227 228 226 231 234 239 242 244 245 246 246 241 241 240 242 243 243
246 251 252 230 227 238 232 249 251 254 256 258 267 304 230 226 223 231 242 242 249 248 243 230 228 228 224 223 231 235 236 238 239 232 228 227 230 232 244 245 244 245 245 246 239 240 239 241 244
247 240 244 250 231 230 227 238 243 266 263 274 283 290 307 317 289 216 220 239 244 239 247 253 244 231 231 229 227 227 241 236 239 241 231 232 232 236 243 247 249 248 247 242 242 236 241 238 242
272 271 254 260 268 269 255 231 221 235 252 265 262 264 276 282 278 266 231 260 263 256 250 252 254 244 226 232 236 235 231 241 241 238 236 229 233 235 239 243 249 249 245 243 238 238 237 241 241
230 261 246 263 249 252 253 258 274 207 227 241 258 252 245 245 289 271 268 264 223 252 250 259 258 233 232 244 254 258 250 234 241 242 232 234 232 232 233 236 245 248 245 242 240 239 239 236 238
300 229 257 274 266 263 250 245 263 277 208 231 250 246 258 237 247 331 312 338 236 254 253 257 267 259 263 253 260 256 255 243 237 240 240 235 236 231 230 232 239 246 246 244 240 239 235 232 232
285 272 272 291 270 246 225 265 284 290 288 288 177 189 174 177 20 300 328 329 310 325 305 261 259 255 259 265 267 257 247 248 242 239 242 246 240 237 230 230 234 243 247 245 240 233 229 226 225